Casper, WY (82601)

10:52 PM MST on February 20, 2017 (GMT -0700)
Grant Avenue | | Change Station
Active Advisory: High Wind Warning

Elev 5164 ft 42.84 °N, 106.32 °W | Updated 1 minute ago

Partly Cloudy
Partly Cloudy
45.9 °F
Feels Like 45 °F
N
3.1
Wind Variable Wind from West
Gusts 8.1 mph

Today
High -- | Low -- °F
--% Chance of Precip.
Yesterday
High -- | Low -- °F
Precip. -- in
Pressure 29.92 in
Visibility 10.0 miles
Clouds Clear
Windchill 45 °F
Dew Point 31 °F
Humidity 56%
Rainfall 0.00 in
Snow Depth Not available.
6:54 AM 5:43 PM
Waning Crescent, 28% visible
METAR KCPR 210453Z AUTO 23026G33KT 10SM CLR 07/M01 A2996 RMK AO2 PK WND 23033/0453 SLP132 T00671011
Pressure 29.92 in
Visibility 10.0 miles
Clouds Clear
Windchill 45 °F
Dew Point 31 °F
Humidity 56%
Rainfall 0.00 in
Snow Depth Not available.
6:54 AM 5:43 PM
Waning Crescent, 28% visible
METAR KCPR 210453Z AUTO 23026G33KT 10SM CLR 07/M01 A2996 RMK AO2 PK WND 23033/0453 SLP132 T00671011

Get Your Daily Forecast Email!

Thanks for signing up!

Be on the lookout for a verification email in your inbox.

You'll start receiving the daily forecast at 8 AM.

×

10-Day Weather Forecast

Almanac

Astronomy

Feb. 20, 2017 Rise Set
Actual Time
Civil Twilight
Nautical Twilight
Astronomical Twilight
Moon
Length of Visible Light
Length of Day
Tomorrow will be .
, % of the Moon is Illuminated

Today's Extremes

State Highs State Lows

Community

WunderPhotos

Upload Photos

1,962,540 photos uploaded!

WunderBlog® & News

Nearby

Air Quality

  Air Quality AQ Index Pollutant
Not available.

Snow Depth

Station Depth Elevation

Earthquake Activity

City Distance Mag. Time & Date
Minimum magnitude displayed is 2.5.

Coastal Water Temperatures

Place Temperature

Stations

Nearby Weather Stations

Station Location Temp. Windchill Dew Point Humidity Wind Precip. Elev Updated Type
                   

Watches & Warnings

High Wind Warning
Issued: 5:05 PM MST Feb. 20, 2017 – National Weather Service

... High Wind Warning remains in effect until 11 PM MST Tuesday...

* timing... strong wind and wind gusts are expected tonight through
Tuesday night.

* Winds... southwest wind 35 to 45 mph gusting to 65 mph, locally
higher up to 75 mph on outer drive on the south side of Casper
and in the Green Mountains and rattlesnake range.

* Impacts... strong cross winds will produce an extreme blow over
threat for trucks pulling light weight and high profile trailers.

Precautionary/preparedness actions...

A High Wind Warning means a hazardous high wind event is expected
or occurring. Sustained wind speeds of at least 40 mph or gusts
of 58 mph or more can lead to property damage.